Lytton, British Columbia

6:54 AM PST on December 03, 2016 (GMT -0800)
Lytton

Weather History for CWLY - July, 2013

Change the Weather History Date:

Wednesday, July 24, 2013

  Actual Average Record
Temperature  
Mean Temperature 80 °F -  
Max Temperature 96 °F 84 °F 100 °F (1996)
Min Temperature 64 °F 59 °F 35 °F (2006)
Cooling Degree Days 15    
Growing Degree Days 30 (Base 50)    
Moisture  
Dew Point 47 °F    
Average Humidity 29    
Maximum Humidity 49    
Minimum Humidity 12    
Precipitation  
Precipitation 0.02 in - - ()
Sea Level Pressure  
Sea Level Pressure 29.93 in    
Wind  
Wind Speed 13 mph ()    
Max Wind Speed 23 mph    
Max Gust Speed 33 mph    
Visibility 9.0 miles    
Events      
Averages and records for this station are not official NWS values.
T = Trace of Precipitation, MM = Missing Value Source: Averaged Metar Reports

Daily Weather History Graph

Daily Weather History Graph

Search for Another Location

Airport or City:

Trip Planner

Search our weather history database for the weather conditions in past years. The results will help you decide how hot, cold, wet, or windy it might be!

Date:

Astronomy

Jul. 24, 2013 Rise Set
Actual Time 5:24 AM PDT 9:00 PM PDT
Civil Twilight 4:43 AM PDT 9:40 PM PDT
Nautical Twilight 3:48 AM PDT 10:35 PM PDT
Astronomical Twilight 2:28 AM PDT 11:53 PM PDT
Moon 9:44 PM PDT (7/24) 8:12 AM PDT (7/24)
Length of Visible Light 16h 56m
Length of Day
15h 36m
Waning Gibbous, 94% of the Moon is Illuminated
Jul 24
Waning Gibbous
Jul 29
Last Quarter
Aug 6
New
Aug 14
First Quarter
Aug 20
Full

Hourly Weather History & Observations

Time (PDT) Temp. Dew Point Humidity Pressure Visibility Wind Dir Wind Speed Gust Speed Precip Events Conditions
12:00 AM 78.8 °F 48.2 °F 34% 29.91 in 9.0 mi South 17.3 mph 31.1 mph N/A   Clear
1:00 AM 77.0 °F 48.2 °F 36% 29.93 in 9.0 mi South 23.0 mph 32.2 mph N/A   Clear
2:00 AM 75 °F 47 °F 26% 29.94 in 9 mi South 23.0 mph - -  
2:00 AM 75.2 °F 46.4 °F 36% 29.94 in 9.0 mi South 19.6 mph 33.4 mph N/A   Clear
3:00 AM 73.4 °F 46.4 °F 38% 29.95 in 9.0 mi South 13.8 mph 25.3 mph N/A   Clear
4:00 AM 71.6 °F 46.4 °F 41% 29.97 in 9.0 mi SSE 11.5 mph 20.7 mph N/A   Clear
5:00 AM 70 °F 46 °F 31% 29.99 in 9 mi SSE 10.4 mph - -  
5:00 AM 69.8 °F 46.4 °F 43% 29.99 in 9.0 mi SSE 9.2 mph 18.4 mph N/A   Clear
6:00 AM 68.0 °F 46.4 °F 46% 30.01 in 9.0 mi South 5.8 mph - N/A   Clear
7:00 AM 66.2 °F 46.4 °F 49% 30.02 in 9.0 mi SSE 3.5 mph - N/A   Clear
8:00 AM 68 °F 47 °F 36% 30.03 in 9 mi South 2.3 mph - -  
8:00 AM 68.0 °F 46.4 °F 46% 30.03 in 9.0 mi SSE 4.6 mph - N/A   Clear
9:00 AM 73.4 °F 48.2 °F 41% 30.02 in 9.0 mi South 6.9 mph - N/A   Clear
10:00 AM 77.0 °F 48.2 °F 36% 29.99 in 9.0 mi SSE 10.4 mph - N/A   Clear
11:00 AM 83 °F 50 °F 22% 29.97 in 9 mi South 8.1 mph - -  
11:00 AM 82.4 °F 50.0 °F 32% 29.97 in 9.0 mi South 8.1 mph - N/A   Clear
12:00 PM 86.0 °F 50.0 °F 29% 29.95 in 9.0 mi South 9.2 mph - N/A   Clear
1:00 PM 91.4 °F 50.0 °F 24% 29.92 in 9.0 mi South 9.2 mph - N/A   Clear
2:00 PM 94 °F 48 °F 13% 29.89 in 9 mi South 11.5 mph - -  
2:00 PM 93.2 °F 48.2 °F 21% 29.89 in 9.0 mi South 10.4 mph 17.3 mph N/A   Clear
3:00 PM 95.0 °F 46.4 °F 19% 29.86 in 9.0 mi South 17.3 mph 24.2 mph N/A   Clear
4:00 PM 96.8 °F 48.2 °F 19% 29.85 in 9.0 mi South 18.4 mph 25.3 mph N/A   Clear
5:00 PM 95 °F 48 °F 12% 29.84 in 9 mi South 18.4 mph - -  
5:00 PM 95.0 °F 48.2 °F 20% 29.84 in 9.0 mi South 17.3 mph 27.6 mph N/A   Clear
6:00 PM 93.2 °F 44.6 °F 19% 29.83 in 9.0 mi South 21.9 mph 33.4 mph N/A   Clear
7:00 PM 89.6 °F 42.8 °F 20% 29.85 in 9.0 mi SSW 17.3 mph 27.6 mph N/A   Clear
8:00 PM 87 °F 42 °F 12% 29.86 in 9 mi SSW 16.1 mph - -  
8:00 PM 87.8 °F 41.0 °F 19% 29.86 in 9.0 mi SSW 17.3 mph 28.8 mph N/A   Clear
9:00 PM 86.0 °F 44.6 °F 23% 29.87 in 9.0 mi SSW 17.3 mph 24.2 mph N/A   Clear
10:00 PM 84.2 °F 46.4 °F 27% 29.89 in 9.0 mi SSW 17.3 mph 28.8 mph N/A   Clear
11:00 PM 81 °F 46 °F 19% 29.91 in 9 mi SSW 19.6 mph - -  
11:00 PM 80.6 °F 46.4 °F 30% 29.91 in 9.0 mi South 18.4 mph 33.4 mph N/A   Clear